SXS47BK LTAI-LBSF

Flight info

Callsign SXS47BK
Flight time N/A
Altitude 36000
Route EKNUD1F/36R EKNUD UQ26 DIGBO UL615 VADEN T227 DEDIN
Aircraft B738/M-SDE2E3FGHIRWXY/LB1

Departure

Time 2026-05-04 17:00
Airport Antalya International Airport (LTAI)

Arrival

Time N/A
Airport Sofia Airport (LBSF)
Time Latitude Longitude Altitude Speed Heading
2026-05-04 16:37 36.89754 30.80019 180 ft 0 kts 69°
2026-05-04 16:50 36.89753 30.80016 180 ft 2 kts 69°
2026-05-04 16:50 36.89741 30.79978 180 ft 2 kts 69°
2026-05-04 16:51 36.89729 30.79940 180 ft 2 kts 69°
2026-05-04 16:51 36.89725 30.79920 180 ft 2 kts 95°
2026-05-04 16:51 36.89731 30.79902 180 ft 0 kts 188°
2026-05-04 16:55 36.89439 30.79887 180 ft 18 kts 185°
2026-05-04 16:55 36.89263 30.79957 179 ft 17 kts 94°
2026-05-04 16:56 36.89225 30.80373 175 ft 30 kts 95°
2026-05-04 16:56 36.88964 30.80606 173 ft 32 kts 186°
2026-05-04 16:57 36.88736 30.80575 172 ft 34 kts 186°
2026-05-04 16:57 36.88266 30.80507 169 ft 27 kts 186°
2026-05-04 16:58 36.88165 30.80728 167 ft 0 kts
2026-05-04 17:00 36.90533 30.81229 841 ft 196 kts
2026-05-04 17:00 36.95239 30.82052 3396 ft 242 kts
2026-05-04 17:01 36.98838 30.82291 4596 ft 271 kts 357°
2026-05-04 17:01 37.02659 30.81946 6427 ft 278 kts 355°
2026-05-04 17:02 37.06600 30.81592 8807 ft 287 kts 356°
2026-05-04 17:02 37.10687 30.81263 10819 ft 308 kts 356°
2026-05-04 17:03 37.12927 30.81093 11148 ft 339 kts 356°
2026-05-04 17:03 37.15376 30.80913 11602 ft 363 kts 356°
2026-05-04 17:03 37.20481 30.80553 13780 ft 369 kts 356°
2026-05-04 17:04 37.25648 30.80195 15533 ft 378 kts 356°
2026-05-04 17:04 37.30945 30.79833 17328 ft 385 kts 356°
2026-05-04 17:05 37.36359 30.79460 18827 ft 392 kts 356°
2026-05-04 17:05 37.41849 30.79081 20240 ft 390 kts 358°
2026-05-04 17:06 37.47286 30.78705 21420 ft 397 kts 358°
2026-05-04 17:06 37.50067 30.78514 21998 ft 403 kts 359°
2026-05-04 17:07 37.55729 30.78125 23272 ft 410 kts 359°
2026-05-04 17:07 37.57620 30.77994 23645 ft 412 kts 359°
2026-05-04 17:07 37.61484 30.77727 24262 ft 418 kts 359°
2026-05-04 17:07 37.64359 30.77528 24678 ft 422 kts 359°
2026-05-04 17:08 37.67349 30.77320 25097 ft 427 kts 359°
2026-05-04 17:08 37.73286 30.76908 25931 ft 434 kts 359°
2026-05-04 17:08 37.76316 30.76696 26345 ft 437 kts 359°
2026-05-04 17:09 37.79367 30.76484 26733 ft 441 kts 359°
2026-05-04 17:09 37.82447 30.76269 27039 ft 446 kts 359°
2026-05-04 17:09 37.85558 30.76052 27442 ft 449 kts 359°
2026-05-04 17:10 37.91849 30.75612 28126 ft 457 kts 359°
2026-05-04 17:10 38.01483 30.74938 29102 ft 467 kts 359°
2026-05-04 17:11 38.04736 30.74710 29403 ft 470 kts 359°
2026-05-04 17:11 38.08022 30.74479 29685 ft 474 kts 359°
2026-05-04 17:11 38.14595 30.74017 30252 ft 478 kts 359°
2026-05-04 17:12 38.17936 30.73781 30488 ft 481 kts 358°
2026-05-04 17:12 38.24647 30.73307 31012 ft 483 kts 358°
2026-05-04 17:13 38.34765 30.72592 31565 ft 488 kts 358°
2026-05-04 17:14 38.44933 30.71871 32427 ft 483 kts 358°
2026-05-04 17:14 38.48278 30.71634 32933 ft 477 kts 357°
2026-05-04 17:14 38.54848 30.71167 33842 ft 471 kts 356°
2026-05-04 17:15 38.58126 30.70934 34103 ft 471 kts 356°
2026-05-04 17:15 38.64683 30.70468 34541 ft 472 kts 356°
2026-05-04 17:16 38.71234 30.70000 35019 ft 471 kts 356°
2026-05-04 17:16 38.81125 30.69289 35405 ft 478 kts 355°
2026-05-04 17:17 38.84419 30.68679 35525 ft 479 kts 346°
2026-05-04 17:17 38.93545 30.63803 36047 ft 478 kts 332°
2026-05-04 17:18 38.96505 30.61807 36042 ft 482 kts 331°
2026-05-04 17:19 39.08500 30.53825 36050 ft 490 kts 333°
2026-05-04 17:20 39.20708 30.45842 36057 ft 493 kts 333°
2026-05-04 17:20 39.29895 30.39808 36060 ft 494 kts 333°
2026-05-04 17:21 39.42110 30.31754 36064 ft 494 kts 333°
2026-05-04 17:22 39.48235 30.27704 36067 ft 494 kts 333°
2026-05-04 17:23 39.60865 30.20671 36052 ft 493 kts 339°
2026-05-04 17:24 39.70414 30.15666 36054 ft 493 kts 338°
2026-05-04 17:25 39.83092 30.08861 36058 ft 492 kts 338°
2026-05-04 17:26 39.95701 30.02071 36070 ft 492 kts 339°
2026-05-04 17:27 40.11494 29.93518 36062 ft 491 kts 339°
2026-05-04 17:28 40.24096 29.86661 36048 ft 489 kts 339°
2026-05-04 17:29 40.33442 29.81557 36025 ft 471 kts 339°
2026-05-04 17:29 40.42115 29.76804 36041 ft 443 kts 339°
2026-05-04 17:30 40.50485 29.72207 36031 ft 425 kts 339°
2026-05-04 17:31 40.55898 29.69229 36044 ft 420 kts 339°
2026-05-04 17:32 40.68887 29.60859 36049 ft 415 kts 324°
2026-05-04 17:33 40.77829 29.51310 36039 ft 412 kts 323°
2026-05-04 17:34 40.86773 29.41845 36049 ft 413 kts 323°
2026-05-04 17:35 40.98004 29.29951 36055 ft 417 kts 323°
2026-05-04 17:36 41.02540 29.25131 36046 ft 419 kts 323°
2026-05-04 17:36 41.07085 29.20293 36042 ft 419 kts 323°
2026-05-04 17:37 41.11521 29.15515 36038 ft 421 kts 320°
2026-05-04 17:37 41.15252 29.09479 35971 ft 420 kts 308°
2026-05-04 17:38 41.18366 29.03131 36032 ft 408 kts 308°
2026-05-04 17:38 41.21477 28.96817 36039 ft 408 kts 308°
2026-05-04 17:39 41.26231 28.87268 36059 ft 421 kts 308°
2026-05-04 17:39 41.29513 28.80682 36062 ft 434 kts 308°
2026-05-04 17:40 41.32864 28.73936 36058 ft 445 kts 307°
2026-05-04 17:40 41.36310 28.66978 36054 ft 454 kts 307°
2026-05-04 17:41 41.39755 28.60003 36033 ft 453 kts 307°
2026-05-04 17:41 41.42656 28.54114 36032 ft 445 kts 307°
2026-05-04 17:42 41.46059 28.47203 36045 ft 445 kts 307°
2026-05-04 17:42 41.49444 28.40316 36049 ft 445 kts 307°
2026-05-04 17:43 41.52814 28.33443 36051 ft 445 kts 307°
2026-05-04 17:43 41.56206 28.26512 36057 ft 446 kts 307°
2026-05-04 17:44 41.59617 28.19526 36052 ft 446 kts 307°
2026-05-04 17:44 41.63016 28.12547 36053 ft 447 kts 306°
2026-05-04 17:45 41.66409 28.05565 36059 ft 447 kts 306°
2026-05-04 17:45 41.69769 27.98635 36058 ft 448 kts 306°
2026-05-04 17:46 41.73198 27.91545 36054 ft 448 kts 306°
2026-05-04 17:46 41.76556 27.84587 36062 ft 448 kts 306°
2026-05-04 17:47 41.79961 27.77515 36056 ft 448 kts 306°
2026-05-04 17:47 41.83338 27.70484 36054 ft 448 kts 306°
2026-05-04 17:48 41.86711 27.63445 36052 ft 447 kts 306°
2026-05-04 17:48 41.90067 27.56425 36062 ft 446 kts 306°
2026-05-04 17:49 41.93414 27.49409 36060 ft 446 kts 306°
2026-05-04 17:49 41.96759 27.42378 36050 ft 446 kts 306°
2026-05-04 17:50 42.00064 27.35321 36098 ft 446 kts 304°